Location: Boitzum
(52.1496°N, 9.6943°E)
Time: 23:34:09
(UTC+00:00)

USA 307 - Pass Details

Date: 13 January 2026
Orbit: 495 x 502 km, 54.0° (Epoch: 10 March)

Event Time Altitude Azimuth Distance (km) Brightness Sun altitude
Exits shadow 05:55:37 22° 288° (WNW) 1,149 3.8 -13.0°
Maximum altitude 05:58:09 79° 14° (NNE) 517 2.6 -12.6°
Drops below altitude 10° 06:02:01 10° 101° (ESE) 1,641 6.7 -12.1°
Sets 06:04:05 0° 103° (ESE) 2,438 8.2 -11.8°
